Location: *
(37.9500°N, 27.3666°E)
Time: 15:22:22
(UTC+00:00)

CZ-3 Stage 3 - Pass Details

Date: 24 October 2021
Orbit: 510 x 34673 km, 30.5° (Epoch: 05 December)

Event Time Altitude Azimuth Distance (km) Brightness Sun altitude
Rises 14:38:05 0° 256° (WSW) 27,460 12.7 7.2°
Reaches altitude 10° 15:44:55 10° 262° (W) 13,424 10.7 -5.4°
Maximum altitude 16:17:39 57° 192° (SSW) 1,936 4.6 -11.8°
Enters shadow 16:22:33 13° 114° (ESE) 2,410 4.5 -12.8°
